Morris, IL

1:56 AM CST on January 24, 2018 (GMT -0600)
Morris

Weather History for KC09 - May, 2013

Change the Weather History Date:

Sunday, May 5, 2013

  Actual Average (KARR) Record (KARR)
Temperature  
Mean Temperature 62 °F -  
Max Temperature 75 °F 67 °F 85 °F (2000)
Min Temperature 49 °F 45 °F 32 °F (2005)
Degree Days  
Heating Degree Days 3    
Growing Degree Days 12 (Base 50)    
Moisture  
Dew Point 47 °F    
Average Humidity 62    
Maximum Humidity 99    
Minimum Humidity 30    
Precipitation  
Precipitation 0.00 in - - ()
Sea Level Pressure  
Sea Level Pressure 29.99 in    
Wind  
Wind Speed 4 mph (NE)    
Max Wind Speed 18 mph    
Max Gust Speed 24 mph    
Visibility 10 miles    
Events Rain    
Averages and records for this station are not official NWS values.
T = Trace of Precipitation, MM = Missing Value Source: NWS Daily Summary

Daily Weather History Graph

Daily Weather History Graph

Search for Another Location

Airport or City:

Trip Planner

Search our weather history database for the weather conditions in past years. The results will help you decide how hot, cold, wet, or windy it might be!

Date:

Astronomy

May. 05, 2013 Rise Set
Actual Time 5:45 AM CDT 7:55 PM CDT
Civil Twilight 5:14 AM CDT 8:26 PM CDT
Nautical Twilight 4:37 AM CDT 9:04 PM CDT
Astronomical Twilight 3:56 AM CDT 9:45 PM CDT
Moon 3:18 AM CDT (5/5) 3:52 PM CDT (5/5)
Length of Visible Light 15h 11m
Length of Day
14h 10m
Waning Crescent, 18% of the Moon is Illuminated
May 5
Waning Crescent
May 9
New
May 17
First Quarter
May 24
Full
May 31
Last Quarter

Hourly Weather History & Observations

Time (CDT) Temp. Dew Point Humidity Pressure Visibility Wind Dir Wind Speed Gust Speed Precip Events Conditions
12:15 AM 54.5 °F 53.8 °F 97% 30.02 in 10.0 mi Calm Calm - N/A   Clear
12:35 AM 54.3 °F 53.4 °F 97% 30.02 in 10.0 mi NNW 3.5 mph - N/A   Clear
12:55 AM 53.6 °F 52.9 °F 97% 30.01 in 10.0 mi North 3.5 mph - N/A   Clear
1:15 AM 53.8 °F 53.2 °F 98% 30.01 in 7.0 mi North 3.5 mph - N/A   Clear
1:35 AM 52.7 °F 52.5 °F 99% 30.00 in 7.0 mi Calm Calm - N/A   Scattered Clouds
1:55 AM 52.5 °F 52.3 °F 99% 29.99 in 5.0 mi North 4.6 mph - N/A   Scattered Clouds
2:15 AM 52.9 °F 51.6 °F 95% 29.99 in 10.0 mi North 3.5 mph - N/A   Mostly Cloudy
2:35 AM 52.9 °F 49.8 °F 89% 29.98 in 10.0 mi North 3.5 mph - N/A   Mostly Cloudy
2:55 AM 51.4 °F 48.9 °F 91% 29.99 in 10.0 mi Calm Calm - N/A   Clear
3:15 AM 52.3 °F 47.8 °F 85% 29.99 in 10.0 mi Calm Calm - N/A   Clear
3:35 AM 50.4 °F 47.7 °F 90% 29.98 in 10.0 mi NW 3.5 mph - N/A   Clear
3:55 AM 51.6 °F 48.2 °F 88% 29.98 in 10.0 mi NNW 3.5 mph - N/A   Clear
4:15 AM 52.2 °F 47.5 °F 84% 29.98 in 10.0 mi Calm Calm - N/A   Mostly Cloudy
4:35 AM 51.8 °F 47.3 °F 85% 29.98 in 10.0 mi Calm Calm - N/A   Mostly Cloudy
4:55 AM 50.4 °F 47.3 °F 89% 29.98 in 10.0 mi NNE 3.5 mph - N/A   Scattered Clouds
5:15 AM 50.0 °F 47.3 °F 90% 29.98 in 10.0 mi Calm Calm - N/A   Mostly Cloudy
5:35 AM 50.0 °F 46.4 °F 87% 29.98 in 10.0 mi North 3.5 mph - N/A   Scattered Clouds
5:55 AM 49.1 °F 46.6 °F 91% 29.98 in 10.0 mi NNE 3.5 mph - N/A   Clear
6:15 AM 49.5 °F 46.8 °F 90% 29.99 in 10.0 mi NNE 3.5 mph - N/A   Scattered Clouds
6:35 AM 50.0 °F 47.1 °F 90% 29.99 in 10.0 mi Calm Calm - N/A   Mostly Cloudy
6:55 AM 51.1 °F 47.3 °F 87% 29.99 in 10.0 mi Calm Calm - N/A   Overcast
7:15 AM 51.4 °F 48.2 °F 89% 30.00 in 10.0 mi Calm Calm - N/A   Overcast
7:35 AM 52.3 °F 48.0 °F 85% 30.00 in 10.0 mi NE 3.5 mph - N/A   Overcast
7:55 AM 54.5 °F 48.0 °F 79% 30.00 in 10.0 mi NE 3.5 mph - N/A   Overcast
8:15 AM 57.2 °F 47.5 °F 70% 30.00 in 10.0 mi NNE 3.5 mph - N/A   Mostly Cloudy
8:35 AM 59.7 °F 47.7 °F 64% 30.00 in 10.0 mi NE 4.6 mph - N/A   Scattered Clouds
8:55 AM 61.9 °F 47.8 °F 60% 30.00 in 10.0 mi NE 4.6 mph - N/A   Scattered Clouds
9:15 AM 62.6 °F 48.0 °F 59% 30.00 in 10.0 mi NE 5.8 mph - N/A   Clear
9:35 AM 63.7 °F 47.8 °F 56% 30.00 in 10.0 mi ENE 5.8 mph - N/A   Clear
9:55 AM 66.0 °F 48.6 °F 53% 30.00 in 10.0 mi NE 4.6 mph - N/A   Clear
10:15 AM 67.1 °F 48.4 °F 51% 30.00 in 10.0 mi NNE 4.6 mph - N/A   Clear
10:35 AM 68.2 °F 48.4 °F 49% 30.00 in 10.0 mi ENE 6.9 mph - N/A   Clear
10:55 AM 69.6 °F 48.2 °F 46% 30.00 in 10.0 mi NNE 3.5 mph - N/A   Clear
11:15 AM 70.0 °F 48.4 °F 46% 29.99 in 10.0 mi ENE 8.1 mph - N/A   Clear
11:35 AM 71.8 °F 47.7 °F 42% 29.98 in 10.0 mi NE 8.1 mph - N/A   Clear
11:55 AM 73.4 °F 47.8 °F 40% 29.97 in 10.0 mi NE 6.9 mph 18.4 mph N/A   Clear
12:15 PM 72.9 °F 45.3 °F 37% 29.96 in 10.0 mi NE 9.2 mph 18.4 mph N/A   Clear
12:35 PM 74.3 °F 42.1 °F 31% 29.96 in 10.0 mi ENE 12.7 mph 20.7 mph N/A   Clear
12:55 PM 73.8 °F 41.7 °F 32% 29.96 in 10.0 mi ENE 11.5 mph 19.6 mph N/A   Clear
1:15 PM 74.3 °F 41.7 °F 31% 29.96 in 10.0 mi ENE 9.2 mph 17.3 mph N/A   Clear
1:35 PM 74.5 °F 41.7 °F 31% 29.95 in 10.0 mi ENE 13.8 mph 23.0 mph N/A   Clear
1:55 PM 75.2 °F 41.5 °F 30% 29.95 in 10.0 mi East 18.4 mph 24.2 mph N/A   Clear
2:15 PM 73.2 °F 39.7 °F 30% 29.95 in 10.0 mi NE 10.4 mph 21.9 mph N/A   Clear
2:35 PM 73.9 °F 41.2 °F 31% 29.95 in 10.0 mi ENE 12.7 mph 24.2 mph N/A   Clear
2:55 PM 73.6 °F 41.5 °F 32% 29.95 in 10.0 mi NE 13.8 mph 24.2 mph N/A   Clear
3:15 PM 72.3 °F 41.9 °F 33% 29.95 in 10.0 mi ENE 11.5 mph 19.6 mph N/A   Clear
3:35 PM 73.6 °F 42.8 °F 33% 29.94 in 10.0 mi ENE 11.5 mph 23.0 mph N/A   Clear
3:55 PM 72.0 °F 42.8 °F 35% 29.95 in 10.0 mi ENE 13.8 mph 19.6 mph N/A   Clear
4:15 PM 72.5 °F 43.2 °F 35% 29.94 in 10.0 mi NE 8.1 mph 18.4 mph N/A   Clear
4:35 PM 71.6 °F 42.8 °F 35% 29.95 in 10.0 mi ENE 12.7 mph 18.4 mph N/A   Clear
4:55 PM 72.3 °F 43.0 °F 35% 29.95 in 10.0 mi NE 8.1 mph - N/A   Clear
5:15 PM 70.7 °F 42.6 °F 36% 29.96 in 10.0 mi ENE 9.2 mph 17.3 mph N/A   Clear
5:35 PM 69.3 °F 45.0 °F 42% 29.96 in 10.0 mi ENE 10.4 mph 19.6 mph N/A Rain Light Rain
5:55 PM 69.1 °F 44.4 °F 41% 29.97 in 10.0 mi East 8.1 mph 16.1 mph N/A   Scattered Clouds
6:15 PM 68.9 °F 43.9 °F 40% 29.97 in 10.0 mi ENE 10.4 mph - N/A   Clear
6:35 PM 67.5 °F 45.1 °F 45% 29.98 in 10.0 mi East 15.0 mph - N/A   Clear
6:55 PM 66.2 °F 46.4 °F 49% 29.98 in 10.0 mi ESE 9.2 mph - N/A   Mostly Cloudy
7:15 PM 64.9 °F 47.3 °F 53% 29.98 in 10.0 mi East 5.8 mph - N/A   Mostly Cloudy
7:35 PM 64.8 °F 47.5 °F 53% 29.98 in 10.0 mi Calm Calm - N/A   Mostly Cloudy
7:55 PM 64.0 °F 48.0 °F 56% 29.99 in 10.0 mi East 4.6 mph - N/A   Overcast
8:15 PM 64.2 °F 46.8 °F 53% 29.99 in 10.0 mi ENE 6.9 mph - N/A   Overcast
8:35 PM 63.7 °F 46.8 °F 54% 30.00 in 10.0 mi ENE 3.5 mph - N/A   Overcast
8:55 PM 63.0 °F 47.5 °F 57% 30.00 in 10.0 mi ENE 4.6 mph - N/A   Overcast
9:15 PM 61.9 °F 46.9 °F 58% 30.01 in 10.0 mi East 6.9 mph - N/A   Overcast
9:35 PM 61.3 °F 46.6 °F 58% 30.03 in 10.0 mi ESE 6.9 mph - N/A   Scattered Clouds
9:55 PM 60.8 °F 46.8 °F 60% 30.03 in 10.0 mi East 5.8 mph - N/A   Mostly Cloudy
10:15 PM 59.9 °F 46.6 °F 61% 30.03 in 10.0 mi East 4.6 mph - N/A   Overcast
10:35 PM 59.0 °F 46.6 °F 63% 30.03 in 10.0 mi East 3.5 mph - N/A   Overcast
10:55 PM 58.5 °F 46.6 °F 65% 30.03 in 10.0 mi Calm Calm - N/A   Overcast
11:15 PM 59.7 °F 46.4 °F 61% 30.02 in 10.0 mi Calm Calm - N/A   Overcast
11:35 PM 57.9 °F 48.4 °F 71% 30.02 in 10.0 mi Calm Calm - N/A   Overcast
11:55 PM 58.3 °F 47.7 °F 68% 30.01 in 10.0 mi Calm Calm - N/A   Overcast